NOAA 16 DEB, 41072

Orbit data source: Space-Track

NOAA 16 DEB, 41072 is space debris in SSO originally from a launch on Thu, 21 Sep 2000 UTC launched from the Air Force Western Test Range (AFWTR). Debris objects in space refer to the collection of defunct objects orbiting the Earth. Examples of debris include non-operational satellites, rocket bodies, and fragments generated from explosions, collisions, or faulty payload assembly.

Loading next visibility...
Identifier
41072, 2000-055AF
Orbit
SSO
Country
Flag of USUS
Related business
Manufacturer
Unknown
Mission
Spacecraft
Bus & Motor
Unknown
Mass
Unknown
Launch date (UTC)
2000-09-21 (25 years ago)
Launch vehicle
Unknown
Launch site
Air Force Western Test Range (AFWTR)
Object type
Payload
Rocket body
Debris
Shape & HBR
Unknown shape, 0.1 m
Radar Cross Section
Small (<0.1 m²)

Expand to show TLE details & history
Last TLE update: 12 hours ago

TLE from 12 hours ago
0 NOAA 16 DEB
1 41072U 00055AF  26071.75089197  .00000270  00000-0  34791-3 0  9992
2 41072  98.8405 148.7256 0283502   6.1985 354.2546 13.54722947508334
Epoch: 2026-03-12T18:01Z
TLE epoch observation values (Epoch: 2026-03-12T18:01:17.066Z)
Latitude
0.00003°
Longitude
68.0082°
Altitude
848.108 km
Speed
7.533 km/s
True Right ascension
09h 54m 54s
True Declination
0° 00' 00"
Sunlit
Object was in full shadow at epoch
Visualization orbit readout
Latitude
Unknown
Longitude
Unknown
Altitude
Unknown
Speed
Unknown
Apparent Right ascension
Unknown
Apparent Declination
Unknown
Sunlit
N/A
Visualization observer readout
Local Sidereal Time
10:31:20
Azimuth
Unknown
Elevation
Unknown
Doppler factor
Unknown
Orbital elements
Apogee altitude
1,262.833 km
Perigee altitude
841.531 km
Semi-major axis
7,430.319 km
Eccentricity
0.02835
Inclination
98.8405°
RAAN
148.7256°
Arg. of periapsis
6.1985°
True anomaly
353.91751°
Mean anomaly
354.2546°
Eccentric anomaly
354.08727°
Mean motion
3.38869 °/min
Orbital period
106.24 mins
BSTAR
0.00034791
Loading maneuver chart data...
Computing Atmospheric mass density...
Loading historical data...
Loading historical data...
Loading historical data...
Loading historical data...
Loading historical data...
Loading historical data...
Loading historical data...

Documentation

Showing up to 5 results
|